| time (UTC) | temp F | wind direction | speed knots | gust knots | rain 1hr in | rain 24hr in | rain mn in | humidity % | barometer mb |
| 20260510130048 | 55 | 0 | 0.0 | 0.9 | 0.00 | 0.00 | 0.00 | 99 | 1013.9 |
| 20260510124547 | 54 | 0 | 0.0 | 0.0 | 0.00 | 0.00 | 0.00 | 99 | 1014.0 |
| 20260510123056 | 53 | 250 | 0.0 | 0.0 | 0.00 | 0.00 | 0.00 | 99 | 1014.0 |
| 20260510121557 | 52 | 0 | 0.0 | 0.0 | 0.00 | 0.00 | 0.00 | 99 | 1013.8 |
| 20260510114555 | 50 | 0 | 0.0 | 0.0 | 0.00 | 0.00 | 0.00 | 98 | 1013.3 |
| 20260510113049 | 50 | 0 | 0.0 | 0.0 | 0.00 | 0.00 | 0.00 | 99 | 1013.1 |
| 20260510111551 | 49 | 0 | 0.0 | 1.7 | 0.00 | 0.00 | 0.00 | 99 | 1013.1 |
| 20260510110053 | 48 | 0 | 0.0 | 2.6 | 0.00 | 0.00 | 0.00 | 98 | 1013.2 |
| 20260510104558 | 47 | 0 | 0.0 | 0.0 | 0.00 | 0.00 | 0.00 | 98 | 1012.7 |
| 20260510103049 | 47 | 0 | 0.0 | 0.0 | 0.00 | 0.00 | 0.00 | 98 | 1012.5 |
| 20260510101558 | 46 | 331 | 0.9 | 2.6 | 0.00 | 0.00 | 0.00 | 97 | 1012.5 |
| 20260510100055 | 46 | 0 | 0.0 | 0.0 | 0.00 | 0.00 | 0.00 | 97 | 1012.3 |
| 20260510094557 | 46 | 322 | 0.9 | 1.7 | 0.00 | 0.00 | 0.00 | 97 | 1012.2 |
| 20260510093052 | 46 | 0 | 0.0 | 0.0 | 0.00 | 0.00 | 0.00 | 97 | 1012.1 |
| 20260510091554 | 47 | 322 | 0.0 | 2.6 | 0.00 | 0.00 | 0.00 | 97 | 1011.9 |
| 20260510090049 | 47 | 0 | 0.9 | 3.5 | 0.00 | 0.00 | 0.00 | 97 | 1012.0 |
| 20260510084601 | 47 | 0 | 0.0 | 3.5 | 0.00 | 0.00 | 0.00 | 98 | 1011.9 |
| 20260510083113 | 46 | 316 | 0.0 | 6.1 | 0.00 | 0.00 | 0.00 | 97 | 1012.5 |
| 20260510081611 | 44 | 0 | 0.0 | 0.0 | 0.00 | 0.00 | 0.00 | 97 | 1011.7 |
| 20260510080045 | 44 | 0 | 0.0 | 0.0 | 0.00 | 0.00 | 0.00 | 96 | 1011.5 |
| 20260510074551 | 44 | 332 | 0.0 | 1.7 | 0.00 | 0.00 | 0.00 | 96 | 1011.7 |
| 20260510073052 | 44 | 0 | 0.0 | 0.0 | 0.00 | 0.00 | 0.00 | 96 | 1011.5 |
| 20260510071553 | 44 | 0 | 0.0 | 0.0 | 0.00 | 0.00 | 0.00 | 96 | 1011.3 |
| 20260510070052 | 45 | 0 | 0.0 | 0.9 | 0.00 | 0.00 | 0.00 | 96 | 1011.3 |
| 20260510064552 | 45 | 0 | 0.0 | 0.0 | 0.00 | 0.00 | 0.00 | 96 | 1011.0 |
| 20260510063053 | 45 | 0 | 0.0 | 0.0 | 0.00 | 0.00 | 0.00 | 96 | 1011.0 |
| 20260510061603 | 46 | 0 | 0.0 | 0.0 | 0.00 | 0.00 | 0.00 | 96 | 1011.1 |
| 20260510060055 | 46 | 0 | 0.0 | 0.0 | 0.00 | 0.00 | 0.00 | 96 | 1011.2 |
| 20260510054552 | 46 | 0 | 0.0 | 0.0 | 0.00 | 0.00 | 0.00 | 96 | 1011.3 |
| 20260510053057 | 46 | 0 | 0.0 | 0.0 | 0.00 | 0.00 | 0.00 | 96 | 1011.4 |
| 20260510051550 | 46 | 0 | 0.0 | 0.0 | 0.00 | 0.00 | 0.00 | 96 | 1011.5 |
| 20260510050053 | 47 | 0 | 0.0 | 0.0 | 0.00 | 0.00 | 0.00 | 95 | 1011.5 |
| 20260510044550 | 47 | 0 | 0.0 | 0.0 | 0.00 | 0.00 | 0.00 | 96 | 1011.6 |
| 20260510043055 | 47 | 0 | 0.0 | 0.0 | 0.00 | 0.00 | 0.00 | 95 | 1011.7 |
| 20260510041548 | 48 | 0 | 0.0 | 0.0 | 0.00 | 0.00 | 0.00 | 96 | 1011.7 |
| 20260510040059 | 48 | 0 | 0.0 | 0.0 | 0.00 | 0.00 | 0.00 | 96 | 1011.7 |
| 20260510034558 | 48 | 0 | 0.0 | 0.0 | 0.00 | 0.00 | 0.00 | 95 | 1011.7 |
| 20260510033048 | 49 | 0 | 0.0 | 0.0 | 0.00 | 0.00 | 0.00 | 95 | 1011.6 |
| 20260510031601 | 49 | 0 | 0.0 | 0.0 | 0.00 | 0.00 | 0.00 | 95 | 1011.7 |
| 20260510030057 | 49 | 0 | 0.0 | 0.0 | 0.00 | 0.00 | 0.00 | 95 | 1011.4 |
| 20260510024549 | 50 | 0 | 0.0 | 0.0 | 0.00 | 0.00 | 0.00 | 95 | 1011.2 |
| 20260510023049 | 50 | 0 | 0.0 | 0.0 | 0.00 | 0.00 | 0.00 | 95 | 1011.1 |
| 20260510021551 | 51 | 0 | 0.0 | 0.0 | 0.00 | 0.00 | 0.00 | 94 | 1011.3 |
| 20260510020049 | 51 | 0 | 0.0 | 0.0 | 0.00 | 0.00 | 0.00 | 94 | 1011.2 |
| 20260510014552 | 52 | 0 | 0.0 | 0.0 | 0.00 | 0.00 | 0.00 | 94 | 1011.0 |
| 20260510013101 | 52 | 0 | 0.0 | 0.0 | 0.00 | 0.00 | 0.00 | 94 | 1010.9 |
| 20260510011555 | 53 | 0 | 0.0 | 0.0 | 0.00 | 0.00 | 0.00 | 93 | 1011.0 |
| 20260510010056 | 53 | 0 | 0.0 | 0.9 | 0.00 | 0.00 | 0.00 | 93 | 1010.8 |
| 20260510004550 | 54 | 0 | 0.0 | 0.0 | 0.00 | 0.00 | 0.00 | 92 | 1010.7 |
| 20260510003051 | 55 | 0 | 0.0 | 0.0 | 0.00 | 0.00 | 0.00 | 91 | 1010.7 |
| 20260510001555 | 56 | 0 | 0.0 | 0.0 | 0.00 | 0.00 | 0.00 | 91 | 1010.7 |
| 20260510000052 | 57 | 0 | 0.0 | 0.0 | 0.00 | 0.00 | 0.00 | 89 | 1010.6 |
| 20260509234548 | 58 | 0 | 0.0 | 0.9 | 0.00 | 0.00 | 0.00 | 89 | 1010.7 |
| 20260509233048 | 58 | 0 | 0.0 | 0.9 | 0.00 | 0.00 | 0.00 | 87 | 1010.6 |
| 20260509231555 | 58 | 0 | 0.0 | 1.7 | 0.00 | 0.00 | 0.00 | 87 | 1010.7 |
| 20260509230048 | 59 | 59 | 0.9 | 2.6 | 0.00 | 0.00 | 0.00 | 87 | 1010.5 |
| 20260509224550 | 59 | 0 | 0.0 | 3.5 | 0.00 | 0.00 | 0.00 | 87 | 1010.4 |
| 20260509223049 | 58 | 0 | 0.0 | 0.9 | 0.00 | 0.00 | 0.00 | 87 | 1010.6 |
| 20260509221549 | 58 | 221 | 0.0 | 1.7 | 0.00 | 0.00 | 0.00 | 89 | 1010.7 |
| 20260509220054 | 58 | 61 | 0.0 | 1.7 | 0.00 | 0.00 | 0.00 | 89 | 1010.7 |
| 20260509214553 | 58 | 40 | 0.0 | 0.9 | 0.00 | 0.00 | 0.00 | 90 | 1010.7 |
| 20260509213052 | 58 | 0 | 0.0 | 0.0 | 0.00 | 0.00 | 0.00 | 89 | 1010.6 |
| 20260509211551 | 58 | 0 | 0.0 | 0.9 | 0.00 | 0.00 | 0.00 | 90 | 1010.5 |
| 20260509210100 | 58 | 0 | 0.0 | 1.7 | 0.00 | 0.00 | 0.00 | 90 | 1010.7 |
| 20260509204554 | 59 | 0 | 0.0 | 0.0 | 0.00 | 0.00 | 0.00 | 87 | 1010.6 |
| 20260509203045 | 59 | 0 | 0.0 | 3.5 | 0.00 | 0.00 | 0.00 | 83 | 1010.6 |
| 20260509201546 | 60 | 334 | 1.7 | 4.3 | 0.00 | 0.00 | 0.00 | 80 | 1010.7 |
| 20260509200101 | 60 | 336 | 1.7 | 7.8 | 0.00 | 0.00 | 0.00 | 79 | 1010.8 |
| 20260509194553 | 59 | 344 | 0.9 | 5.2 | 0.00 | 0.00 | 0.00 | 83 | 1010.7 |
| 20260509193051 | 58 | 319 | 1.7 | 7.0 | 0.00 | 0.00 | 0.00 | 83 | 1010.9 |
| 20260509191546 | 58 | 350 | 0.9 | 4.3 | 0.00 | 0.00 | 0.00 | 83 | 1011.3 |
| 20260509190057 | 58 | 298 | 1.7 | 4.3 | 0.00 | 0.00 | 0.00 | 84 | 1011.3 |
| 20260509184640 | 58 | 302 | 1.7 | 7.8 | 0.00 | 0.00 | 0.00 | 83 | 1011.6 |
| 20260509183106 | 59 | 304 | 1.7 | 7.0 | 0.00 | 0.00 | 0.00 | 82 | 1011.8 |
| 20260509181553 | 59 | 328 | 1.7 | 3.5 | 0.00 | 0.00 | 0.00 | 84 | 1011.8 |
| 20260509180055 | 59 | 298 | 1.7 | 7.8 | 0.00 | 0.00 | 0.00 | 84 | 1011.9 |
| 20260509174553 | 59 | 322 | 2.6 | 7.8 | 0.00 | 0.00 | 0.00 | 83 | 1011.9 |
| 20260509173054 | 60 | 313 | 0.9 | 4.3 | 0.00 | 0.00 | 0.00 | 81 | 1011.9 |
| 20260509171552 | 60 | 341 | 1.7 | 3.5 | 0.00 | 0.00 | 0.00 | 77 | 1011.9 |
| 20260509170058 | 60 | 331 | 0.0 | 3.5 | 0.00 | 0.00 | 0.00 | 79 | 1011.9 |
| 20260509164550 | 60 | 196 | 0.0 | 2.6 | 0.00 | 0.00 | 0.00 | 80 | 1011.9 |
| 20260509163108 | 59 | 0 | 0.0 | 0.9 | 0.00 | 0.00 | 0.00 | 82 | 1011.8 |
| 20260509161552 | 59 | 0 | 0.0 | 1.7 | 0.00 | 0.00 | 0.00 | 83 | 1011.8 |
| 20260509160055 | 60 | 329 | 0.9 | 2.6 | 0.00 | 0.00 | 0.00 | 79 | 1012.3 |
| 20260509154554 | 61 | 311 | 0.9 | 3.5 | 0.00 | 0.00 | 0.00 | 77 | 1012.7 |
| 20260509153101 | 62 | 215 | 0.9 | 7.0 | 0.00 | 0.00 | 0.00 | 76 | 1012.9 |
| 20260509151558 | 62 | 350 | 0.0 | 3.5 | 0.00 | 0.00 | 0.00 | 74 | 1012.7 |
| 20260509150055 | 62 | 175 | 0.0 | 6.1 | 0.00 | 0.00 | 0.00 | 75 | 1012.8 |
| 20260509144557 | 62 | 97 | 0.9 | 5.2 | 0.00 | 0.00 | 0.00 | 73 | 1012.7 |
| 20260509143056 | 61 | 258 | 1.7 | 7.0 | 0.00 | 0.00 | 0.00 | 74 | 1012.4 |
| 20260509141607 | 61 | 182 | 1.7 | 7.0 | 0.00 | 0.00 | 0.00 | 75 | 1012.3 |
| 20260509134551 | 60 | 217 | 1.7 | 7.8 | 0.00 | 0.00 | 0.00 | 78 | 1012.3 |
| 20260509133048 | 60 | 219 | 1.7 | 7.0 | 0.00 | 0.00 | 0.00 | 79 | 1012.4 |
| 20260509131551 | 59 | 150 | 0.9 | 4.3 | 0.00 | 0.00 | 0.00 | 80 | 1012.1 |